Montrose, CO

9:16 AM MDT on July 26, 2017 (GMT -0600)
Montrose Regional

Weather History for KMTJ - August, 2014

Change the Weather History Date:

Saturday, August 16, 2014

  Actual Average Record
Temperature  
Mean Temperature 74 °F 71 °F  
Max Temperature 91 °F 86 °F 96 °F (2002)
Min Temperature 56 °F 56 °F 50 °F (2008)
Degree Days  
Heating Degree Days 0 0  
Month to date heating degree days 0 0  
Since 1 June heating degree days 18 39  
Since 1 July heating degree days 0 0  
Cooling Degree Days 9 6  
Month to date cooling degree days 117 115  
Year to date cooling degree days 639 537  
Since 1 June cooling degree days 598 520  
Growing Degree Days 22 (Base 50)    
Moisture  
Dew Point 44 °F    
Average Humidity 43    
Maximum Humidity 72    
Minimum Humidity 14    
Precipitation  
Precipitation 0.00 in 0.04 in 0.50 in (2005)
Month to date precipitation 0.51 0.66  
Year to date precipitation 4.61 6.73  
Sea Level Pressure  
Sea Level Pressure 30.00 in    
Wind  
Wind Speed 7 mph (SSE)    
Max Wind Speed 16 mph    
Max Gust Speed 18 mph    
Visibility 10 miles    
Events      
T = Trace of Precipitation, MM = Missing Value Source: NWS Daily Summary

Daily Weather History Graph

Daily Weather History Graph

Search for Another Location

Airport or City:

Trip Planner

Search our weather history database for the weather conditions in past years. The results will help you decide how hot, cold, wet, or windy it might be!

Date:

Astronomy

Aug. 16, 2014 Rise Set
Actual Time 6:26 AM MDT 8:04 PM MDT
Civil Twilight 5:58 AM MDT 8:32 PM MDT
Nautical Twilight 5:24 AM MDT 9:06 PM MDT
Astronomical Twilight 4:48 AM MDT 9:42 PM MDT
Moon 11:55 PM MDT (8/16) 1:10 PM MDT (8/16)
Length of Visible Light 14h 33m
Length of Day
13h 37m
Waning Gibbous, 58% of the Moon is Illuminated
Aug 16
Waning Gibbous
Aug 17
Last Quarter
Aug 25
New
Sep 2
First Quarter
Sep 8
Full

Hourly Weather History & Observations

Time (MDT) Temp. Dew Point Humidity Pressure Visibility Wind Dir Wind Speed Gust Speed Precip Events Conditions
12:53 AM 64.0 °F 46.9 °F 54% 29.98 in 10.0 mi SE 11.5 mph - N/A   Clear
1:53 AM 64.0 °F 46.0 °F 52% 29.98 in 10.0 mi SE 10.4 mph - N/A   Clear
2:53 AM 61.0 °F 46.0 °F 58% 30.00 in 10.0 mi SE 10.4 mph - N/A   Clear
3:53 AM 61.0 °F 46.0 °F 58% 30.02 in 10.0 mi SSE 9.2 mph - N/A   Clear
4:53 AM 62.1 °F 45.0 °F 53% 30.00 in 10.0 mi SSE 15.0 mph - N/A   Clear
5:53 AM 59.0 °F 45.0 °F 60% 30.04 in 10.0 mi SE 8.1 mph - N/A   Clear
6:53 AM 55.9 °F 46.0 °F 69% 30.08 in 10.0 mi SSE 5.8 mph - N/A   Clear
7:53 AM 62.1 °F 46.0 °F 56% 30.08 in 10.0 mi SE 5.8 mph - N/A   Clear
8:53 AM 66.9 °F 48.9 °F 52% 30.07 in 10.0 mi South 3.5 mph - N/A   Clear
9:53 AM 73.0 °F 48.0 °F 41% 30.06 in 10.0 mi Calm Calm - N/A   Clear
10:53 AM 77.0 °F 48.9 °F 37% 30.06 in 10.0 mi Variable 4.6 mph - N/A   Clear
11:53 AM 82.0 °F 51.1 °F 34% 30.03 in 10.0 mi WNW 6.9 mph - N/A   Clear
12:53 PM 84.9 °F 46.9 °F 27% 30.00 in 10.0 mi North 4.6 mph - N/A   Clear
1:53 PM 87.1 °F 41.0 °F 20% 29.99 in 10.0 mi NNW 8.1 mph - N/A   Clear
2:53 PM 90.0 °F 33.1 °F 13% 29.97 in 10.0 mi WNW 12.7 mph - N/A   Clear
3:53 PM 89.1 °F 39.0 °F 17% 29.96 in 10.0 mi NNW 9.2 mph - N/A   Clear
4:53 PM 88.0 °F 39.0 °F 18% 29.95 in 10.0 mi West 6.9 mph - N/A   Clear
5:53 PM 89.1 °F 37.9 °F 16% 29.94 in 10.0 mi NNW 6.9 mph - N/A   Clear
6:53 PM 88.0 °F 39.0 °F 18% 29.93 in 10.0 mi NNW 3.5 mph - N/A   Clear
7:53 PM 84.0 °F 46.0 °F 26% 29.94 in 10.0 mi Calm Calm - N/A   Clear
8:53 PM 73.0 °F 48.0 °F 41% 29.97 in 10.0 mi SSE 5.8 mph - N/A   Clear
9:53 PM 71.1 °F 45.0 °F 39% 29.98 in 10.0 mi SSE 6.9 mph - N/A   Clear
10:53 PM 69.1 °F 44.1 °F 40% 29.98 in 10.0 mi SE 10.4 mph - N/A   Clear
11:53 PM 68.0 °F 43.0 °F 40% 29.97 in 10.0 mi SE 10.4 mph - N/A   Clear